Home   Weather   Bahía Blanca   Past weeks

Flag for Argentina Past Weather in Bahía Blanca, Buenos Aires, Argentina — Yesterday and Last 2 Weeks

Now
75 °F

Scattered clouds.


Feels Like: 75 °F
Forecast: 69 / 98 °F
Wind: 16 mph from East

Location: Mar Del Plata Aerodrome

Current Time: Jan 16, 2017 at 4:27:04 pm

Latest Report: Jan 16, 2017 at 4:00 pm


Visibility: N/A

Pressure: 29.80 "Hg

Humidity: 83%

Dew Point: 70 °F

Location of Bahía BlancaLocation

Past Weather in Bahía Blanca — Graph

°F

Bahía Blanca Temperature Yesterday

Maximum temperature yesterday: 73 °F (at 1:00 pm)
Minimum temperature yesterday: 64 °F (at 3:00 am)
Average temperature yesterday: 68 °F

High & Low Weather Summary for the Past Weeks

 TemperatureHumidityPressure
High91 °F (Jan 7, 3:00 pm)100% (Jan 2, 5:00 am)30.07 "Hg (Jan 2, 5:00 am)
Low45 °F (Jan 6, 5:00 am)22% (Jan 4, 2:00 pm)29.50 "Hg (Jan 13, 4:00 am)
Average69 °F68%29.80 "Hg
* Reported Jan 1 3:00 pm — Jan 16 3:00 pm, Bahía Blanca, Weather by CustomWeather, © 2017

Note: Actual official high and low records may vary slightly from our data, if they occured in-between our weather recording intervals... More about our weather records

Advertising

Bahía Blanca Weather History for the Previous 24 Hours

Scroll right to see more
 ConditionsComfort  
Time TempWeatherWind HumidityBarometerVisibility
3:00 pm
Mon, Jan 16
75 °FScattered clouds.14 mph78%29.83 "HgN/A
2:00 pm77 °FScattered clouds.16 mph74%29.83 "HgN/A
1:00 pm75 °FPassing clouds.15 mph78%29.83 "HgN/A
12:00 pm75 °FPassing clouds.13 mph83%29.86 "HgN/A
11:00 am75 °FPassing clouds.12 mph78%29.86 "HgN/A
10:00 am73 °FScattered clouds.12 mph83%29.86 "HgN/A
9:00 am72 °FPartly sunny.9 mph88%29.86 "HgN/A
8:00 am70 °FPartly sunny.5 mph94%29.86 "Hg4 mi
7:00 am66 °FPartly sunny.No wind94%29.86 "Hg5 mi
6:00 am64 °FFog.No wind88%29.86 "Hg5 mi
5:00 am66 °FClear.No wind88%29.86 "Hg5 mi
4:00 am66 °FPartly cloudy.No wind94%29.86 "Hg5 mi
3:00 am66 °FPassing clouds.5 mph88%29.86 "Hg5 mi
2:00 am66 °FLow clouds.5 mph88%29.89 "Hg4 mi
1:00 am68 °FLow clouds.9 mph88%29.89 "Hg4 mi
12:00 am68 °FLow clouds.12 mph88%29.89 "Hg4 mi
11:00 pm
Sun, Jan 15
68 °FMostly cloudy.9 mph88%29.89 "Hg4 mi
10:00 pm68 °FPartly cloudy.7 mph88%29.89 "Hg4 mi
9:00 pm68 °FClear.7 mph88%29.89 "Hg5 mi
8:00 pm68 °FSunny.9 mph83%29.89 "Hg10 mi
7:00 pm70 °FSunny.9 mph78%29.89 "Hg10 mi
6:00 pm70 °FSunny.8 mph78%29.89 "Hg10 mi
5:00 pm70 °FSunny.10 mph83%29.89 "Hg10 mi
4:00 pm73 °FSunny.9 mph69%29.89 "Hg10 mi
Weather by CustomWeather, © 2017

See weather overviewHow to use our weather pages